Other Public Products
Issued by NWS Grand Forks, ND

Home | Current Version | Previous Version | Text Only | Print | Product List | Glossary On
Versions: 1 2 3 4 5 6 7 8 9 10 11 12 13 14 15 16 17 18 19 20 21 22 23 24 25 26 27 28 29 30 31 32 33 34 35 36 37 38 39 40 41 42 43 44 45 46 47 48 49 50
000
FPUS83 KFGF 302110
OPUFGF
PRAIRIE TO PINES WEATHER ROUNDUP
NATIONAL WEATHER SERVICE EASTERN NORTH DAKOTA/GRAND FORKS ND
400 PM CDT THU JUL 30 2015

 **SATELLITE DATA USED TO AUGMENT SKY COVER AT AUTOMATED STATIONS**
 *****  WEATHER ACROSS EASTERN NORTH DAKOTA  *****

CITY           SKY/WX    TMP DP  RH WIND       PRES   REMARKS
GRAND FORKS    MOSUNNY   83  56  39 NW16G23   29.98F
GRAND FORKS AF MOSUNNY   80  57  46 NW14      30.00S
GRAND CITY NWS   N/A     82 N/A N/A W22         N/A
BUXTON         NOT AVBL
DEVILS LAKE    SUNNY     81  54  39 NW22G28   30.04F
FARGO          SUNNY     84  54  35 NW17G28   30.03S
WAHPETON ARPT  CLEAR     82  50  32 NW13G23   30.05F
$$

 *****  WEATHER ACROSS CENTRAL AND WESTERN NORTH DAKOTA  *****

CITY           SKY/WX    TMP DP  RH WIND       PRES   REMARKS
JAMESTOWN        N/A     82  52  35 NW18      30.08F
BISMARCK       SUNNY     85  50  29 NW20G26   30.14S
MINOT          SUNNY     81  48  31 NW20G32   30.11F
MINOT AFB      SUNNY     83  49  31 NW24G32   30.10S
GARRISON         N/A     81  50  33 NW18      30.14S
WILLISTON      SUNNY     84  42  22 N13       30.17F
DICKINSON      MOSUNNY   83  46  27 NW9       30.17F
HETTINGER      MOSUNNY   86  43  22 N12       30.20S
$$

 *****  OTHER OBSERVATIONS NORTHEAST NORTH DAKOTA  *****

CITY           SKY/WX    TMP DP  RH WIND       PRES   REMARKS
WALHALLA       FAIR      79  54  41 MISG      29.97S
LANGDON        FAIR      79  54  41 W23G30    30.02F
CAVALIER       FAIR      79  54  41 W17G25    29.97S
GRAFTON        FAIR      79  55  44 NW22G33   29.98F
CANDO          NOT AVBL
FORT TOTTEN      N/A     80  55  41 NW10      29.95S
ROLLA            N/A     73  54  49 NW22G28   30.06F
RUGBY          NOT AVBL
 ***** THE ABOVE OBSERVATIONS ARE NON NWS ARE NOT QUALITY
        CONTROLLED AND MAY MIS-REPORT RAIN FOR SNOW...
$$

 *****  OTHER OBSERVATIONS SOUTHEAST NORTH DAKOTA *****

CITY           SKY/WX    TMP DP  RH WIND       PRES   REMARKS
COOPERSTOWN    NOT AVBL
VALLEY CITY    FAIR      81  54  39 W18G25    30.07F
OAKES            N/A     84  59  42 NW9G18    30.08F
GWINNER        FAIR      84  57  39 NW12G21   30.08F
BUFFALO        NOT AVBL
WYNDMERE       NOT AVBL
 ***** THE ABOVE OBSERVATIONS ARE NON NWS ARE NOT QUALITY
       CONTROLLED AND MAY MIS-REPORT RAIN FOR SNOW...
$$

  *****  WEATHER ACROSS NORTHERN MINNESOTA  *****

CITY           SKY/WX    TMP DP  RH WIND       PRES   REMARKS
FLAG ISLAND    MOSUNNY   77  54  44 W20G30    29.87S
WARROAD        MOSUNNY   79  57  47 W16G24    29.91F
ROSEAU         SUNNY     77  59  53 W10G21    29.93S
HALLOCK        PTSUNNY   81  50  34 NW18G28   29.95S
THF RVR FALLS  MOSUNNY   79  52  38 W15G21    29.98S
HALSTAD        NOT AVBL
FOSSTON        MOSUNNY   79  50  36 W17G26    30.01S
BAUDETTE       MOSUNNY   79  52  38 W24G30    29.90F
WASKISH        MOSUNNY   79  59  50 W16       29.94S
CROOKSTON      SUNNY     81  55  41 NW17G23   29.99F
$$
  *****  WEATHER ACROSS CENTRAL AND WEST MINNESOTA  *****

CITY           SKY/WX    TMP DP  RH WIND       PRES   REMARKS
BEMIDJI        MOSUNNY   80  53  39 W22G29    29.99S
PARK RAPIDS    PTSUNNY   80  51  36 W24G31    30.02S
WADENA         MOSUNNY   81  54  39 W12G21    30.04S
DETROIT LAKES  SUNNY     81  54  39 NW14G25   30.05F
MOORHEAD       MOSUNNY   81  57  44 NW17G23   30.03F
FERGUS FALLS   MOSUNNY   81  57  44 W17G25    30.04F
ELBOW LAKE     FAIR      80  58  47 W13G21    30.06F
MORRIS MN      SUNNY     82  61  47 W9        30.06F
STAPLES        MOSUNNY   77  52  41 W9G24     30.03F
WHEATON        SUNNY     81  61  50 W8        30.08F
$$
  *****  WEATHER ELSEWHERE ACROSS MINNESOTA  *****

CITY           SKY/WX    TMP DP  RH WIND       PRES   REMARKS
DULUTH         MOSUNNY   81  51  35 W18G32    29.94S
INTRNTL FALLS  MOSUNNY   78  56  46 W18G26    29.88F
ELY            LGT RAIN  70  57  64 NW9G24    29.90S
CLOQUET        MOSUNNY   81  46  30 W15G25    29.95F
BRAINERD       MOSUNNY   80  53  39 W15G23    30.01F
HIBBING        SUNNY     79  50  36 W16G25    29.93F
ALEXANDRIA     SUNNY     81  57  43 W17G24    30.08F
SAINT CLOUD    SUNNY     83  54  36 W16G26    30.04F
MINNEAPOLIS    SUNNY     84  56  38 NW18      30.04F
$$

  *****  WEATHER ACROSS SOUTH DAKOTA  *****

CITY           SKY/WX    TMP DP  RH WIND       PRES   REMARKS
SIOUX FALLS    MOSUNNY   86  60  41 W7        30.13F
BROOKINGS      SUNNY     82  55  39 W12G17    30.14F
WATERTOWN      SUNNY     84  54  35 W14       30.12F
HURON          SUNNY     88  51  28 NW10      30.11F
SISSETON         N/A     85  58  39 NW16G26   30.05F
ABERDEEN       SUNNY     89  52  28 NW14G22   30.09S
MITCHELL       SUNNY     90  56  31 CALM      30.12F
PIERRE         SUNNY     91  43  18 NW9       30.12F
MOBRIDGE       SUNNY     90  50  25 NW12      30.11S
RAPID CITY     SUNNY     87  46  24 NE6       30.24F
$$

  *****  SOME WEATHER IN NEARBY STATES *****

CITY           SKY/WX    TMP DP  RH WIND       PRES   REMARKS
GLASGOW MT     MOSUNNY   85  42  22 NW14      30.18F
GREAT FALLS MT FAIR      84  33  16 CALM      30.24F
CHEYENNE WY    SUNNY     84  40  21 SE8       30.38F
SCOTTSBLUFF NE SUNNY     89  45  21 VRB7      30.26F
OMAHA NE       MOSUNNY   90  57  32 W10       30.15F
DES MOINES IA  MOSUNNY   89  54  30 W13       30.13F
DAVENPORT IA   SUNNY     85  64  49 W12G18    30.09F
CHICAGO IL     MOSUNNY   88  51  28 NW22      30.02F
EAU CLAIRE WI  SUNNY     83  56  39 W17       30.00F
LA CROSSE WI   SUNNY     86  53  32 W17G26    30.02F
$$

  *****  SOME NATIONAL WEATHER *****

CITY           SKY/WX    TMP DP  RH WIND       PRES   REMARKS
LA GUARDIA NY  TSTM      77  73  87 W13G31    29.81R FOG
RALEIGH NC     PTSUNNY   89  74  60 CALM      29.89R HX  98
ATLANTA GA     PTSUNNY   85  71  63 SE9       29.93F HX  90
NEW ORLEANS LA PTSUNNY   95  71  45 CALM      29.92F HX 102
OKLAHOMA CITY  PTSUNNY   89  73  59 NE9       30.12F HX  97
ALBUQUERQUE NM PTSUNNY   77  58  51 E15       30.34F
SALT LAKE CITY FAIR      92  26   9 NW12      30.25F
LOS ANGELES CA FAIR      76  65  68 W14       30.00F
BOISE ID       FAIR      91  31  11 W9        30.19F
SEATTLE WA     FAIR      91  48  22 N9        30.08F
$$

*** WEATHER ACROSS MANITOBA...SASKATCHEWAN AND ONTARIO ***
                ***ONTARIO***

CITY           SKY/WX    TMP DP  RH WIND       PRES   REMARKS
GERALDTON      PTSUNNY   70  55  60 W10G24    29.70S
THUNDER BAY    PTSUNNY   77  54  44 W15G21    29.80S
SIOUX LOOKOUT  TSTM      63  59  88 W12G26    29.80R
TORONTO        PTSUNNY   82  54  36 W22G31    29.82S
BIG TROUT LK   MOSUNNY   63  54  72 NW17G36   29.61R
PICKLE LAKE    PTSUNNY   70  50  49 W15G24    29.69F
DRYDEN         PTSUNNY   73  54  49 NW32G51   29.83R THUNDER
KENORA         MOSUNNY   77  57  50 W14G22    29.85F
$$
                *** MANITOBA***

CITY           SKY/WX    TMP DP  RH WIND       PRES   REMARKS
BRANDON        PTSUNNY   75  52  43 NW28G36   30.02S
DAUPHIN        PTSUNNY   73  52  46 W26G35    29.94S
ISLAND LAKE    PTSUNNY   70  52  52 NW9       29.74F
PILOT MOUND      N/A     75  50  41 W16G28      N/A
THE PAS        PTSUNNY   66  55  68 N7        29.91R
THOMPSON       PTSUNNY   72  52  49 NW14G22   29.77F
WINNIPEG       PTSUNNY   77  57  50 W16G23    29.90F
LYNN LAKE      MOSUNNY   72  46  40 N13G18    29.83F
CHURCHILL      PTSUNNY   55  50  82 N15G21    29.68S
GILLAM         MOSUNNY   68  57  68 W10G18    29.68F
$$
                ***SASKATCHEWAN***

CITY           SKY/WX    TMP DP  RH WIND       PRES   REMARKS
ESTEVAN        MOSUNNY   77  46  33 NW21G31   30.16F
KINDERSLEY     MOSUNNY   77  46  33 W12       30.15F
LLOYDMINSTER   MOSUNNY   73  43  33 NW14G21   30.13F
PRINCE ALBERT  MOSUNNY   75  45  33 NW21G33   30.02F
REGINA         MOSUNNY   75  54  46 NW16G23   30.14F
YORKTON        MOSUNNY   72  48  43 W23G31    30.04S



USA.gov is the U.S. government's official web portal to all federal, state and local government web resources and services.